Location: Unspecified
(0.0000°N, 0.0000°E)
Time: 08:06:45
(UTC+00:00)

CUTE-I - Visible Passes

Search period start: 13 April 2024 00:00
Search period end: 23 April 2024 00:00
Orbit: 808 x 821 km, 98.7° (Epoch: 12 April)

Date Brightness Start Highest point End Pass type
(mag) Time Alt. Az. Time Alt. Az. Time Alt. Az.
13 Apr ? 05:35:17 10° NNE 05:40:28 51° ESE 05:45:39 10° S visible
13 Apr ? 18:14:03 10° S 18:19:13 54° WSW 18:24:22 10° NNW visible
14 Apr ? 05:13:41 10° NE 05:18:11 28° ESE 05:22:41 10° SSE visible
15 Apr ? 04:52:56 10° ENE 04:55:55 15° ESE 04:58:54 10° SE visible
15 Apr ? 19:12:36 10° WSW 19:14:18 11° WSW 19:16:00 10° W visible
16 Apr ? 18:48:02 10° SSW 18:52:02 22° WSW 18:56:03 10° NW visible
17 Apr ? 18:24:49 10° S 18:29:45 40° WSW 18:34:41 10° NNW visible
18 Apr ? 05:23:50 10° NE 05:28:44 37° ESE 05:33:37 10° S visible
19 Apr ? 05:02:36 10° ENE 05:06:27 20° ESE 05:10:18 10° SSE visible
20 Apr ? 04:43:19 10° E 04:44:12 10° ESE 04:45:03 10° ESE visible
20 Apr ? 18:59:19 10° SW 19:02:34 17° WSW 19:05:48 10° WNW visible
21 Apr ? 18:35:42 10° SSW 18:40:17 30° WSW 18:44:52 10° NW visible
22 Apr ? 18:12:49 10° S 18:17:59 56° WSW 18:23:10 10° NNW visible
